GW2039 Weather Reports


time (UTC)temp
F
wind
direction
speed
knots
gust
knots
rain 1hr
in
rain 24hr
in
rain mn
in
humidity
%
barometer
mb
20260902125402 89 45 3.5 4.3 0.00 0.00 0.00 76 1004.3
20260902125305 89 48 3.5 4.3 0.00 0.00 0.00 76 1004.2
20260902125200 89 54 2.6 4.3 0.00 0.00 0.00 76 1004.2
20260902125103 89 59 2.6 3.5 0.00 0.00 0.00 76 1004.3
20260902125008 90 78 2.6 3.5 0.00 0.00 0.00 75 1004.3
20260902124905 90 52 2.6 3.5 0.00 0.00 0.00 75 1004.3
20260902124700 90 65 1.7 3.5 0.00 0.00 0.00 75 1004.3
20260902124603 90 73 2.6 3.5 0.00 0.00 0.00 75 1004.4
20260902124504 90 40 1.7 3.5 0.00 0.00 0.00 75 1004.3
20260902124404 90 55 1.7 3.5 0.00 0.00 0.00 75 1004.3
20260902124059 90 14 1.7 3.5 0.00 0.00 0.00 76 1004.4
20260902124005 90 20 0.9 3.5 0.00 0.00 0.00 76 1004.3
20260902123907 90 15 0.0 3.5 0.00 0.00 0.00 76 1004.3
20260902123803 90 30 0.0 3.5 0.00 0.00 0.00 76 1004.4
20260902123603 89 355 0.9 3.5 0.00 0.00 0.00 76 1004.3
20260902123508 89 55 0.9 3.5 0.00 0.00 0.00 76 1004.4
20260902123359 89 360 1.7 3.5 0.00 0.00 0.00 76 1004.4
20260902123300 89 41 1.7 3.5 0.00 0.00 0.00 75 1004.4
20260902123200 89 61 1.7 4.3 0.00 0.00 0.00 75 1004.4
20260902123101 90 71 2.6 4.3 0.00 0.00 0.00 76 1004.4
20260902123005 90 47 2.6 4.3 0.00 0.00 0.00 76 1004.4
20260902122702 90 53 2.6 4.3 0.00 0.00 0.00 75 1004.4
20260902122605 90 60 1.7 4.3 0.00 0.00 0.00 75 1004.3
20260902122505 90 36 2.6 4.3 0.00 0.00 0.00 75 1004.4
20260902122400 90 55 1.7 4.3 0.00 0.00 0.00 76 1004.4
20260902122305 90 59 1.7 3.5 0.00 0.00 0.00 76 1004.5
20260902122103 90 34 0.9 3.5 0.00 0.00 0.00 76 1004.4
20260902122007 90 350 0.9 3.5 0.00 0.00 0.00 76 1004.4
20260902121900 90 78 1.7 3.5 0.00 0.00 0.00 75 1004.4
20260902121800 90 32 2.6 3.5 0.00 0.00 0.00 75 1004.3
20260902121605 90 33 1.7 3.5 0.00 0.00 0.00 75 1004.2
20260902121305 90 52 2.6 3.5 0.00 0.00 0.00 75 1004.2
20260902121204 91 5 1.7 3.5 0.00 0.00 0.00 76 1004.2
20260902121004 91 11 1.7 2.6 0.00 0.00 0.00 75 1004.2
20260902120903 91 344 1.7 2.6 0.00 0.00 0.00 75 1004.3
20260902120803 91 344 1.7 4.3 0.00 0.00 0.00 75 1004.4
20260902120703 91 344 1.7 4.3 0.00 0.00 0.00 75 1004.4
20260902120602 91 344 1.7 4.3 0.00 0.00 0.00 75 1004.4
20260902120505 91 344 1.7 4.3 0.00 0.00 0.00 75 1004.4
20260902120403 91 344 1.7 4.3 0.00 0.00 0.00 74 1004.4
20260902120303 91 344 1.7 4.3 0.00 0.00 0.00 75 1004.4
20260902120203 91 344 1.7 4.3 0.00 0.00 0.00 74 1004.4
20260902120105 91 344 1.7 4.3 0.00 0.00 0.00 74 1004.3
20260902120004 91 344 1.7 4.3 0.00 0.00 0.00 74 1004.3
20260902115802 91 276 0.9 2.6 0.00 0.00 0.00 74 1004.3
20260902115703 91 335 1.7 2.6 0.00 0.00 0.00 74 1004.2
20260902115600 91 335 1.7 2.6 0.00 0.00 0.00 74 1004.3
20260902115505 91 324 1.7 3.5 0.00 0.00 0.00 74 1004.3
20260902115405 91 321 1.7 3.5 0.00 0.00 0.00 74 1004.3
20260902115306 91 345 1.7 3.5 0.00 0.00 0.00 73 1004.3
20260902115100 91 346 1.7 3.5 0.00 0.00 0.00 74 1004.3
20260902115005 91 341 1.7 3.5 0.00 0.00 0.00 74 1004.2
20260902114859 91 341 1.7 3.5 0.00 0.00 0.00 73 1004.3
20260902114804 91 17 1.7 3.5 0.00 0.00 0.00 73 1004.2
20260902114659 92 17 0.9 3.5 0.00 0.00 0.00 73 1004.2
20260902114559 92 47 0.9 3.5 0.00 0.00 0.00 73 1004.2
20260902114508 92 71 0.9 3.5 0.00 0.00 0.00 73 1004.2
20260902114403 92 333 0.9 3.5 0.00 0.00 0.00 73 1004.3
20260902114304 92 333 0.9 3.5 0.00 0.00 0.00 73 1004.3
20260902114103 91 300 1.7 3.5 0.00 0.00 0.00 73 1004.4
20260902114007 91 301 2.6 3.5 0.00 0.00 0.00 73 1004.5
20260902113759 92 320 0.9 2.6 0.00 0.00 0.00 72 1004.5
20260902113658 92 355 0.9 2.6 0.00 0.00 0.00 72 1004.4
20260902113602 92 294 0.9 2.6 0.00 0.00 0.00 72 1004.3
20260902113508 92 294 0.9 2.6 0.00 0.00 0.00 73 1004.3
20260902113405 92 307 0.0 2.6 0.00 0.00 0.00 73 1004.4
20260902113305 92 330 0.0 2.6 0.00 0.00 0.00 73 1004.5
20260902112901 91 326 1.7 2.6 0.00 0.00 0.00 73 1004.5
20260902112802 91 326 1.7 2.6 0.00 0.00 0.00 73 1004.6
20260902112701 91 350 0.9 2.6 0.00 0.00 0.00 73 1004.5
20260902112605 91 348 1.7 2.6 0.00 0.00 0.00 73 1004.5
20260902112502 91 340 1.7 2.6 0.00 0.00 0.00 73 1004.5
20260902112403 91 333 0.9 2.6 0.00 0.00 0.00 73 1004.5
20260902112306 91 333 0.0 2.6 0.00 0.00 0.00 73 1004.5
20260902112159 91 333 0.9 2.6 0.00 0.00 0.00 73 1004.5
20260902112103 92 333 0.9 2.6 0.00 0.00 0.00 73 1004.6
20260902112006 92 333 1.7 2.6 0.00 0.00 0.00 73 1004.6
20260902111859 92 333 1.7 2.6 0.00 0.00 0.00 73 1004.6
20260902111700 92 342 1.7 2.6 0.00 0.00 0.00 73 1004.6
20260902111606 92 342 1.7 2.6 0.00 0.00 0.00 73 1004.6
20260902111507 92 325 1.7 3.5 0.00 0.00 0.00 73 1004.7
20260902111400 92 303 1.7 3.5 0.00 0.00 0.00 73 1004.6
20260902111207 92 317 1.7 3.5 0.00 0.00 0.00 73 1004.7
20260902111059 92 342 1.7 3.5 0.00 0.00 0.00 73 1004.7
20260902110900 92 313 1.7 3.5 0.00 0.00 0.00 73 1004.8
20260902110802 92 326 1.7 3.5 0.00 0.00 0.00 73 1004.8
20260902110703 92 300 1.7 3.5 0.00 0.00 0.00 72 1004.7
20260902110603 92 307 1.7 3.5 0.00 0.00 0.00 72 1004.8
20260902110508 92 302 0.9 2.6 0.00 0.00 0.00 72 1004.8
20260902110402 92 339 0.9 3.5 0.00 0.00 0.00 72 1004.8
20260902110302 92 66 0.0 3.5 0.00 0.00 0.00 72 1004.8
20260902110201 92 66 0.9 3.5 0.00 0.00 0.00 72 1004.7
20260902110104 92 66 0.9 3.5 0.00 0.00 0.00 72 1004.7
20260902110006 92 331 0.9 3.5 0.00 0.00 0.00 72 1004.7
20260902105802 92 331 1.7 3.5 0.00 0.00 0.00 72 1004.7
20260902105700 92 331 1.7 4.3 0.00 0.00 0.00 72 1004.7
20260902105506 92 283 1.7 4.3 0.00 0.00 0.00 72 1004.7
20260902105259 92 296 2.6 4.3 0.00 0.00 0.00 72 1004.8
20260902105200 93 292 2.6 4.3 0.00 0.00 0.00 72 1004.7
20260902105103 93 345 2.6 4.3 0.00 0.00 0.00 72 1004.8
20260902105006 93 298 2.6 4.3 0.00 0.00 0.00 71 1004.8
20260902104927 93 298 2.6 4.3 0.00 0.00 0.00 71 1004.8
20260902013103 80 78 3.5 7.8 0.00 0.00 0.00 90 1007.3
20260902013002 80 94 3.5 7.8 0.00 0.00 0.00 90 1007.3
20260902012902 80 77 3.5 7.8 0.00 0.00 0.00 90 1007.2
20260902012704 81 65 2.6 5.2 0.00 0.00 0.00 90 1007.2
20260902012359 81 82 2.6 7.0 0.00 0.00 0.00 91 1007.1
20260902012258 81 129 2.6 7.0 0.00 0.00 0.00 91 1007.1
20260902012203 81 93 2.6 7.0 0.00 0.00 0.00 91 1007.0
20260902012103 81 83 2.6 7.0 0.00 0.00 0.00 91 1007.1
20260902012002 81 101 2.6 7.0 0.00 0.00 0.00 91 1007.1
20260902011902 81 90 3.5 7.0 0.00 0.00 0.00 91 1007.0
20260902011803 81 83 4.3 7.0 0.00 0.00 0.00 91 1007.1
20260902011704 81 92 3.5 8.7 0.00 0.00 0.00 91 1007.0
20260902011559 81 65 1.7 8.7 0.00 0.00 0.00 91 1007.0
20260902011504 81 92 2.6 8.7 0.00 0.00 0.00 91 1007.0
20260902011358 81 41 3.5 8.7 0.00 0.00 0.00 91 1007.0
20260902011303 81 109 2.6 8.7 0.00 0.00 0.00 91 1007.1
20260902011202 80 84 1.7 8.7 0.00 0.00 0.00 91 1007.0
20260902011102 81 94 2.6 8.7 0.00 0.00 0.00 91 1007.1
20260902010859 80 165 6.1 8.7 0.00 0.00 0.00 91 1007.1
20260902010759 80 112 5.2 7.8 0.00 0.00 0.00 91 1007.0
20260902010659 80 113 4.3 7.8 0.00 0.00 0.00 91 1007.0
20260902010559 80 106 5.2 7.8 0.00 0.00 0.00 91 1007.0
20260902010507 80 117 4.3 7.8 0.00 0.00 0.00 91 1007.0
20260902010358 80 112 4.3 7.8 0.00 0.00 0.00 91 1006.9
20260902010302 80 127 4.3 8.7 0.00 0.00 0.00 91 1006.9
20260902010205 80 123 4.3 8.7 0.00 0.00 0.00 91 1006.9
20260902010007 80 142 5.2 8.7 0.00 0.00 0.00 91 1006.9
20260902005904 80 103 6.1 8.7 0.00 0.00 0.00 91 1006.9
20260902005759 80 111 7.0 8.7 0.00 0.00 0.00 91 1006.9
20260902005704 80 94 7.0 8.7 0.00 0.00 0.00 91 1006.9
20260902005608 80 94 7.0 8.7 0.00 0.00 0.00 91 1006.9
20260902001859 81 65 4.3 7.8 0.00 0.00 0.00 90 1006.8
20260902001803 81 103 4.3 7.8 0.00 0.00 0.00 90 1006.8
20260902001701 81 77 4.3 7.8 0.00 0.00 0.00 90 1006.8
20260902001603 81 82 3.5 9.6 0.00 0.00 0.00 90 1006.8
20260902001506 81 88 4.3 9.6 0.00 0.00 0.00 90 1006.7
20260902001305 81 84 3.5 9.6 0.00 0.00 0.00 90 1006.7
20260902001202 81 126 3.5 9.6 0.00 0.00 0.00 90 1006.6
20260902001105 81 126 4.3 9.6 0.00 0.00 0.00 90 1006.7
20260902001006 81 141 4.3 9.6 0.00 0.00 0.00 90 1006.6
20260902000903 81 19 5.2 9.6 0.00 0.00 0.00 90 1006.6
20260902000805 81 105 4.3 9.6 0.00 0.00 0.00 90 1006.7
20260902000606 81 100 3.5 7.8 0.00 0.00 0.00 90 1006.6
20260902000407 81 71 4.3 7.8 0.00 0.00 0.00 90 1006.6
20260902000204 81 67 2.6 7.0 0.00 0.00 0.00 90 1006.7
20260902000101 81 90 2.6 7.0 0.00 0.00 0.00 90 1006.6
20260902000003 81 58 3.5 7.0 0.00 0.00 0.00 90 1006.7
20260901235858 81 162 3.5 7.0 0.00 0.00 0.00 90 1006.7
20260901235758 81 71 4.3 7.0 0.00 0.00 0.00 91 1006.6
20260901235702 81 68 3.5 7.0 0.00 0.00 0.00 91 1006.7
20260901235559 81 115 3.5 7.0 0.00 0.00 0.00 91 1006.6
20260901235502 81 35 3.5 7.0 0.00 0.00 0.00 91 1006.6
20260901235358 81 98 2.6 5.2 0.00 0.00 0.00 91 1006.5
20260901235203 81 57 3.5 7.0 0.00 0.00 0.00 90 1006.3
20260901235103 81 64 3.5 7.0 0.00 0.00 0.00 90 1006.3
20260901235020 81 101 3.5 7.8 0.00 0.00 0.00 90 1006.3
20260901234900 82 96 3.5 7.8 0.00 0.00 0.00 90 1006.2
20260901234805 81 100 2.6 7.8 0.00 0.00 0.00 90 1006.2
20260901234703 82 134 3.5 7.8 0.00 0.00 0.00 90 1006.2
20260901234507 82 124 3.5 7.8 0.00 0.00 0.00 90 1006.2
20260901234301 82 106 4.3 7.8 0.00 0.00 0.00 90 1006.3
20260901234158 82 46 3.5 7.8 0.00 0.00 0.00 90 1006.1
20260901234100 82 52 2.6 7.0 0.00 0.00 0.00 90 1006.2
20260901234008 82 46 2.6 7.0 0.00 0.00 0.00 90 1006.2
20260901233903 82 105 3.5 7.0 0.00 0.00 0.00 90 1006.2
20260901233802 82 72 3.5 7.0 0.00 0.00 0.00 90 1006.2
20260901233700 82 78 2.6 6.1 0.00 0.00 0.00 90 1006.2
20260901233501 82 163 2.6 7.0 0.00 0.00 0.00 90 1006.2
20260901233403 82 96 2.6 7.0 0.00 0.00 0.00 90 1006.2
20260901233304 82 41 2.6 7.0 0.00 0.00 0.00 90 1006.3
20260901233205 82 105 3.5 7.0 0.00 0.00 0.00 90 1006.3
20260901233100 82 92 3.5 7.0 0.00 0.00 0.00 90 1006.3
20260901233008 82 107 3.5 7.0 0.00 0.00 0.00 90 1006.3
20260901232903 82 47 2.6 7.0 0.00 0.00 0.00 90 1006.3
20260901232801 82 92 2.6 6.1 0.00 0.00 0.00 90 1006.4
20260901232658 82 82 1.7 6.1 0.00 0.00 0.00 90 1006.4
20260901232601 82 78 1.7 5.2 0.00 0.00 0.00 90 1006.4
20260901232400 82 109 1.7 7.0 0.00 0.00 0.00 90 1006.3
20260901181600 84 65 2.6 4.3 0.00 0.00 0.00 88 1007.1
20260901181501 84 48 2.6 4.3 0.00 0.00 0.00 88 1007.1
20260901181359 84 48 2.6 4.3 0.00 0.00 0.00 88 1007.1
20260901181301 84 48 2.6 4.3 0.00 0.00 0.00 88 1007.1
20260901181208 84 48 2.6 4.3 0.00 0.00 0.00 88 1007.1
20260901160258 84 60 2.6 6.1 0.00 0.00 0.00 83 1007.0
20260901160200 84 36 3.5 6.1 0.00 0.00 0.00 83 1007.0
20260901160010 84 39 4.3 6.1 0.00 0.00 0.00 83 1007.0
20260901155909 84 39 4.3 6.1 0.00 0.00 0.00 83 1007.0